Time,TemperatureF,DewpointF,PressureIn,WindDirection,WindDirectionDegrees,WindSpeedMPH,WindSpeedGustMPH,Humidity,HourlyPrecipIn,Conditions,Clouds,dailyrainin,SoftwareType,DateUTC
2013-03-24 00:00:00,68.9,66.8,29.61,East,92,3.0,3.0,93,0.00,,,0.00,Wunderground v.1.15,2013-03-24 05:00:00,
2013-03-24 00:09:00,68.8,66.7,29.61,ESE,113,3.0,3.0,93,0.00,,,0.00,Wunderground v.1.15,2013-03-24 05:09:00,
2013-03-24 00:14:00,68.7,66.6,29.62,ESE,116,3.0,3.0,93,0.00,,,0.00,Wunderground v.1.15,2013-03-24 05:14:00,
2013-03-24 00:19:00,68.6,66.5,29.62,SE,127,2.0,2.0,93,0.00,,,0.00,Wunderground v.1.15,2013-03-24 05:19:00,
2013-03-24 00:24:00,68.4,66.3,29.62,SSE,158,2.0,2.0,93,0.00,,,0.00,Wunderground v.1.15,2013-03-24 05:24:00,
2013-03-24 00:29:00,68.3,66.2,29.62,SE,127,2.0,2.0,93,0.00,,,0.00,Wunderground v.1.15,2013-03-24 05:29:00,
2013-03-24 00:34:00,68.1,66.0,29.62,SE,132,1.0,2.0,93,0.00,,,0.00,Wunderground v.1.15,2013-03-24 05:34:00,
2013-03-24 00:40:00,67.9,65.8,29.62,SE,127,1.0,2.0,93,0.00,,,0.00,Wunderground v.1.15,2013-03-24 05:40:00,
2013-03-24 00:45:00,67.8,65.7,29.62,SSE,152,1.0,2.0,93,0.00,,,0.00,Wunderground v.1.15,2013-03-24 05:45:00,
2013-03-24 00:50:00,67.7,65.6,29.62,SSE,162,1.0,2.0,93,0.00,,,0.00,Wunderground v.1.15,2013-03-24 05:50:00,
2013-03-24 00:55:00,67.5,65.4,29.63,South,176,1.0,2.0,93,0.00,,,0.00,Wunderground v.1.15,2013-03-24 05:55:00,
2013-03-24 01:00:00,67.3,65.2,29.62,SE,146,1.0,1.0,93,0.00,,,0.00,Wunderground v.1.15,2013-03-24 06:00:00,
2013-03-24 01:09:00,66.7,64.9,29.63,South,186,1.0,1.0,94,0.00,,,0.00,Wunderground v.1.15,2013-03-24 06:09:00,
2013-03-24 01:14:00,66.5,64.7,29.62,SE,133,1.0,1.0,94,0.00,,,0.00,Wunderground v.1.15,2013-03-24 06:14:00,
2013-03-24 01:17:00,66.1,64.3,29.63,SSE,158,1.0,-999.0,94,0.00,,,0.01,Wunderground v.1.15,2013-03-24 06:17:00,
2013-03-24 01:19:00,66.3,64.5,29.63,SSE,153,0.0,1.0,94,0.00,,,0.00,Wunderground v.1.15,2013-03-24 06:19:00,
2013-03-24 01:22:00,66.1,64.3,29.63,SSE,158,1.0,-999.0,94,0.00,,,0.01,Wunderground v.1.15,2013-03-24 06:22:00,
2013-03-24 01:24:00,66.2,64.4,29.63,ESE,122,0.0,1.0,94,0.00,,,0.00,Wunderground v.1.15,2013-03-24 06:24:00,
2013-03-24 01:27:00,66.1,64.3,29.63,SSE,158,1.0,-999.0,94,0.00,,,0.01,Wunderground v.1.15,2013-03-24 06:27:00,
2013-03-24 01:29:00,66.1,64.3,29.63,SSE,159,0.0,0.0,94,0.00,,,0.00,Wunderground v.1.15,2013-03-24 06:29:00,
2013-03-24 01:32:00,66.1,64.3,29.63,SSE,158,1.0,-999.0,94,0.00,,,0.01,Wunderground v.1.15,2013-03-24 06:32:00,
2013-03-24 01:34:00,66.1,64.3,29.63,SSE,165,0.0,0.0,94,0.00,,,0.00,Wunderground v.1.15,2013-03-24 06:34:00,
2013-03-24 01:37:00,66.1,64.3,29.63,SSE,158,1.0,-999.0,94,0.00,,,0.01,Wunderground v.1.15,2013-03-24 06:37:00,
2013-03-24 01:39:00,66.0,64.5,29.63,SSE,149,1.0,1.0,95,0.00,,,0.00,Wunderground v.1.15,2013-03-24 06:39:00,
2013-03-24 01:42:00,66.1,64.3,29.63,SSE,158,1.0,-999.0,94,0.00,,,0.01,Wunderground v.1.15,2013-03-24 06:42:00,
2013-03-24 01:45:00,66.0,64.5,29.63,SSW,195,0.0,1.0,95,0.00,,,0.00,Wunderground v.1.15,2013-03-24 06:45:00,
2013-03-24 01:47:00,65.9,64.4,29.64,SSE,158,0.0,-999.0,95,0.00,,,0.01,Wunderground v.1.15,2013-03-24 06:47:00,
2013-03-24 01:50:00,65.9,64.4,29.63,SW,226,0.0,0.0,95,0.00,,,0.00,Wunderground v.1.15,2013-03-24 06:50:00,
2013-03-24 01:52:00,65.9,64.4,29.64,SSE,158,0.0,-999.0,95,0.00,,,0.01,Wunderground v.1.15,2013-03-24 06:52:00,
2013-03-24 01:55:00,65.9,64.4,29.64,SW,226,0.0,0.0,95,0.00,,,0.00,Wunderground v.1.15,2013-03-24 06:55:00,
2013-03-24 01:57:00,65.9,64.4,29.64,SSE,158,0.0,-999.0,95,0.00,,,0.01,Wunderground v.1.15,2013-03-24 06:57:00,
2013-03-24 02:00:00,65.9,64.4,29.64,SW,226,0.0,0.0,95,0.00,,,0.00,Wunderground v.1.15,2013-03-24 07:00:00,
2013-03-24 02:02:00,65.9,64.4,29.64,SSE,158,0.0,-999.0,95,0.00,,,0.01,Wunderground v.1.15,2013-03-24 07:02:00,
2013-03-24 02:07:00,65.9,64.4,29.64,SSE,158,0.0,-999.0,95,0.00,,,0.01,Wunderground v.1.15,2013-03-24 07:07:00,
2013-03-24 02:10:00,65.9,64.4,29.65,South,180,0.0,0.0,95,0.00,,,0.00,Wunderground v.1.15,2013-03-24 07:10:00,
2013-03-24 02:12:00,65.9,64.4,29.64,SSE,158,0.0,-999.0,95,0.00,,,0.01,Wunderground v.1.15,2013-03-24 07:12:00,
2013-03-24 02:17:00,65.8,64.3,29.66,South,180,0.0,-999.0,95,0.00,,,0.01,Wunderground v.1.15,2013-03-24 07:17:00,
2013-03-24 02:19:00,65.9,64.4,29.65,South,179,0.0,0.0,95,0.00,,,0.00,Wunderground v.1.15,2013-03-24 07:19:00,
2013-03-24 02:22:00,65.8,64.3,29.66,South,180,0.0,-999.0,95,0.00,,,0.01,Wunderground v.1.15,2013-03-24 07:22:00,
2013-03-24 02:24:00,65.9,64.4,29.66,WNW,283,0.0,0.0,95,0.00,,,0.00,Wunderground v.1.15,2013-03-24 07:24:00,
2013-03-24 02:27:00,65.8,64.3,29.66,South,180,0.0,-999.0,95,0.00,,,0.01,Wunderground v.1.15,2013-03-24 07:27:00,
2013-03-24 02:29:00,65.8,64.3,29.66,WNW,283,1.0,1.0,95,0.00,,,0.00,Wunderground v.1.15,2013-03-24 07:29:00,
2013-03-24 02:32:00,65.8,64.3,29.66,South,180,0.0,-999.0,95,0.00,,,0.01,Wunderground v.1.15,2013-03-24 07:32:00,
2013-03-24 02:34:00,65.8,64.3,29.66,WNW,298,1.0,1.0,95,0.00,,,0.00,Wunderground v.1.15,2013-03-24 07:34:00,
2013-03-24 02:37:00,65.8,64.3,29.66,South,180,0.0,-999.0,95,0.00,,,0.01,Wunderground v.1.15,2013-03-24 07:37:00,
2013-03-24 02:39:00,65.7,64.2,29.66,West,280,1.0,1.0,95,0.00,,,0.00,Wunderground v.1.15,2013-03-24 07:39:00,
2013-03-24 02:42:00,65.8,64.3,29.66,South,180,0.0,-999.0,95,0.00,,,0.01,Wunderground v.1.15,2013-03-24 07:42:00,
2013-03-24 02:44:00,65.7,64.2,29.65,West,264,1.0,1.0,95,0.00,,,0.00,Wunderground v.1.15,2013-03-24 07:44:00,
2013-03-24 02:47:00,65.8,64.6,29.66,WSW,248,1.0,-999.0,96,0.00,,,0.01,Wunderground v.1.15,2013-03-24 07:47:00,
2013-03-24 02:50:00,65.8,64.6,29.66,WSW,255,1.0,1.0,96,0.00,,,0.00,Wunderground v.1.15,2013-03-24 07:50:00,
2013-03-24 02:52:00,65.8,64.6,29.66,WSW,248,1.0,-999.0,96,0.00,,,0.01,Wunderground v.1.15,2013-03-24 07:52:00,
2013-03-24 02:55:00,65.8,64.6,29.66,WSW,246,0.0,3.0,96,0.00,,,0.00,Wunderground v.1.15,2013-03-24 07:55:00,
2013-03-24 02:57:00,65.8,64.6,29.66,WSW,248,1.0,-999.0,96,0.00,,,0.01,Wunderground v.1.15,2013-03-24 07:57:00,
2013-03-24 03:00:00,65.8,64.6,29.66,SW,221,1.0,1.0,96,0.00,,,0.00,Wunderground v.1.15,2013-03-24 08:00:00,
2013-03-24 03:02:00,65.8,64.6,29.66,WSW,248,1.0,-999.0,96,0.00,,,0.01,Wunderground v.1.15,2013-03-24 08:02:00,
2013-03-24 03:07:00,65.8,64.6,29.66,WSW,248,1.0,-999.0,96,0.00,,,0.01,Wunderground v.1.15,2013-03-24 08:07:00,
2013-03-24 03:10:00,65.6,64.4,29.65,WSW,257,1.0,1.0,96,0.00,,,0.00,Wunderground v.1.15,2013-03-24 08:10:00,
2013-03-24 03:12:00,65.8,64.6,29.66,WSW,248,1.0,-999.0,96,0.00,,,0.01,Wunderground v.1.15,2013-03-24 08:12:00,
2013-03-24 03:15:00,65.5,64.0,29.65,SW,215,1.0,4.0,95,0.00,,,0.00,Wunderground v.1.15,2013-03-24 08:15:00,
2013-03-24 03:17:00,65.1,63.9,29.66,SW,225,1.0,-999.0,96,0.00,,,0.01,Wunderground v.1.15,2013-03-24 08:17:00,
2013-03-24 03:22:00,65.1,63.9,29.66,SW,225,1.0,-999.0,96,0.00,,,0.01,Wunderground v.1.15,2013-03-24 08:22:00,
2013-03-24 03:24:00,65.1,63.9,29.65,WSW,243,2.0,2.0,96,0.00,,,0.00,Wunderground v.1.15,2013-03-24 08:24:00,
2013-03-24 03:27:00,65.1,63.9,29.66,SW,225,1.0,-999.0,96,0.00,,,0.01,Wunderground v.1.15,2013-03-24 08:27:00,
2013-03-24 03:29:00,65.1,63.9,29.66,WSW,248,2.0,3.0,96,0.00,,,0.00,Wunderground v.1.15,2013-03-24 08:29:00,
2013-03-24 03:32:00,65.1,63.9,29.66,SW,225,1.0,-999.0,96,0.00,,,0.01,Wunderground v.1.15,2013-03-24 08:32:00,
2013-03-24 03:34:00,65.2,64.0,29.65,South,188,2.0,3.0,96,0.00,,,0.00,Wunderground v.1.15,2013-03-24 08:34:00,
2013-03-24 03:37:00,65.1,63.9,29.66,SW,225,1.0,-999.0,96,0.00,,,0.01,Wunderground v.1.15,2013-03-24 08:37:00,
2013-03-24 03:40:00,65.2,64.0,29.66,WSW,240,2.0,3.0,96,0.00,,,0.00,Wunderground v.1.15,2013-03-24 08:40:00,
2013-03-24 03:42:00,65.1,63.9,29.66,SW,225,1.0,-999.0,96,0.00,,,0.01,Wunderground v.1.15,2013-03-24 08:42:00,
2013-03-24 03:45:00,65.2,64.0,29.66,SW,236,2.0,3.0,96,0.00,,,0.00,Wunderground v.1.15,2013-03-24 08:45:00,
2013-03-24 03:47:00,65.2,64.0,29.65,WSW,248,2.0,-999.0,96,0.00,,,0.01,Wunderground v.1.15,2013-03-24 08:47:00,
2013-03-24 03:50:00,65.2,64.0,29.66,WSW,248,2.0,2.0,96,0.00,,,0.00,Wunderground v.1.15,2013-03-24 08:50:00,
2013-03-24 03:52:00,65.2,64.0,29.65,WSW,248,2.0,-999.0,96,0.00,,,0.01,Wunderground v.1.15,2013-03-24 08:52:00,
2013-03-24 03:55:00,65.2,64.0,29.66,SW,235,2.0,2.0,96,0.00,,,0.00,Wunderground v.1.15,2013-03-24 08:55:00,
2013-03-24 03:57:00,65.2,64.0,29.65,WSW,248,2.0,-999.0,96,0.00,,,0.01,Wunderground v.1.15,2013-03-24 08:57:00,
2013-03-24 04:00:00,65.2,64.0,29.65,West,262,2.0,2.0,96,0.00,,,0.00,Wunderground v.1.15,2013-03-24 09:00:00,
2013-03-24 04:02:00,65.2,64.0,29.65,WSW,248,2.0,-999.0,96,0.00,,,0.01,Wunderground v.1.15,2013-03-24 09:02:00,
2013-03-24 04:07:00,65.2,64.0,29.65,WSW,248,2.0,-999.0,96,0.00,,,0.01,Wunderground v.1.15,2013-03-24 09:07:00,
2013-03-24 04:10:00,65.4,64.2,29.66,SW,224,2.0,2.0,96,0.00,,,0.00,Wunderground v.1.15,2013-03-24 09:10:00,
2013-03-24 04:12:00,65.2,64.0,29.65,WSW,248,2.0,-999.0,96,0.00,,,0.01,Wunderground v.1.15,2013-03-24 09:12:00,
2013-03-24 04:15:00,65.4,64.2,29.66,WSW,239,2.0,4.0,96,0.00,,,0.00,Wunderground v.1.15,2013-03-24 09:15:00,
2013-03-24 04:17:00,65.6,64.4,29.67,WSW,248,2.0,-999.0,96,0.00,,,0.01,Wunderground v.1.15,2013-03-24 09:17:00,
2013-03-24 04:20:00,65.5,64.3,29.66,SW,225,2.0,2.0,96,0.00,,,0.00,Wunderground v.1.15,2013-03-24 09:20:00,
2013-03-24 04:22:00,65.6,64.4,29.67,WSW,248,2.0,-999.0,96,0.00,,,0.01,Wunderground v.1.15,2013-03-24 09:22:00,
2013-03-24 04:27:00,65.6,64.4,29.67,WSW,248,2.0,-999.0,96,0.00,,,0.01,Wunderground v.1.15,2013-03-24 09:27:00,
2013-03-24 04:30:00,65.6,64.4,29.66,WNW,283,2.0,2.0,96,0.00,,,0.00,Wunderground v.1.15,2013-03-24 09:30:00,
2013-03-24 04:32:00,65.6,64.4,29.67,WSW,248,2.0,-999.0,96,0.00,,,0.01,Wunderground v.1.15,2013-03-24 09:32:00,
2013-03-24 04:35:00,65.7,64.5,29.66,West,264,2.0,2.0,96,0.00,,,0.00,Wunderground v.1.15,2013-03-24 09:35:00,
2013-03-24 04:37:00,65.6,64.4,29.67,WSW,248,2.0,-999.0,96,0.00,,,0.01,Wunderground v.1.15,2013-03-24 09:37:00,
2013-03-24 04:40:00,65.7,64.5,29.67,West,262,2.0,2.0,96,0.00,,,0.00,Wunderground v.1.15,2013-03-24 09:40:00,
2013-03-24 04:42:00,65.6,64.4,29.67,WSW,248,2.0,-999.0,96,0.00,,,0.01,Wunderground v.1.15,2013-03-24 09:42:00,
2013-03-24 04:45:00,65.6,64.4,29.67,West,266,2.0,2.0,96,0.00,,,0.00,Wunderground v.1.15,2013-03-24 09:45:00,
2013-03-24 04:47:00,65.2,64.0,29.69,WNW,293,2.0,-999.0,96,0.01,,,0.01,Wunderground v.1.15,2013-03-24 09:47:00,
2013-03-24 04:50:00,65.4,64.2,29.68,WNW,291,2.0,4.0,96,0.00,,,0.01,Wunderground v.1.15,2013-03-24 09:50:00,
2013-03-24 04:52:00,65.2,64.0,29.69,WNW,293,2.0,-999.0,96,0.01,,,0.01,Wunderground v.1.15,2013-03-24 09:52:00,
2013-03-24 04:55:00,65.3,64.1,29.69,WNW,301,2.0,4.0,96,0.00,,,0.01,Wunderground v.1.15,2013-03-24 09:55:00,
2013-03-24 04:57:00,65.2,64.0,29.69,WNW,293,2.0,-999.0,96,0.01,,,0.01,Wunderground v.1.15,2013-03-24 09:57:00,
2013-03-24 05:00:00,65.2,64.0,29.70,WNW,287,3.0,3.0,96,0.00,,,0.01,Wunderground v.1.15,2013-03-24 10:00:00,
2013-03-24 05:02:00,65.2,64.0,29.69,WNW,293,2.0,-999.0,96,0.01,,,0.01,Wunderground v.1.15,2013-03-24 10:02:00,
2013-03-24 05:07:00,65.2,64.0,29.69,WNW,293,2.0,-999.0,96,0.01,,,0.01,Wunderground v.1.15,2013-03-24 10:07:00,
2013-03-24 05:10:00,65.1,63.9,29.71,WNW,287,2.0,4.0,96,0.00,,,0.01,Wunderground v.1.15,2013-03-24 10:10:00,
2013-03-24 05:12:00,65.2,64.0,29.69,WNW,293,2.0,-999.0,96,0.01,,,0.01,Wunderground v.1.15,2013-03-24 10:12:00,
2013-03-24 05:15:00,65.0,63.8,29.71,WNW,291,3.0,4.0,96,0.00,,,0.01,Wunderground v.1.15,2013-03-24 10:15:00,
2013-03-24 05:17:00,65.2,64.3,29.72,WNW,293,2.0,-999.0,97,0.01,,,0.01,Wunderground v.1.15,2013-03-24 10:17:00,
2013-03-24 05:20:00,65.1,64.2,29.72,NW,310,3.0,3.0,97,0.00,,,0.01,Wunderground v.1.15,2013-03-24 10:20:00,
2013-03-24 05:22:00,65.2,64.3,29.72,WNW,293,2.0,-999.0,97,0.01,,,0.01,Wunderground v.1.15,2013-03-24 10:22:00,
2013-03-24 05:25:00,65.1,64.2,29.72,NW,323,2.0,3.0,97,0.00,,,0.01,Wunderground v.1.15,2013-03-24 10:25:00,
2013-03-24 05:27:00,65.2,64.3,29.72,WNW,293,2.0,-999.0,97,0.01,,,0.01,Wunderground v.1.15,2013-03-24 10:27:00,
2013-03-24 05:32:00,65.2,64.3,29.72,WNW,293,2.0,-999.0,97,0.01,,,0.01,Wunderground v.1.15,2013-03-24 10:32:00,
2013-03-24 05:35:00,65.3,64.4,29.73,NW,315,3.0,3.0,97,0.00,,,0.01,Wunderground v.1.15,2013-03-24 10:35:00,
2013-03-24 05:37:00,65.2,64.3,29.72,WNW,293,2.0,-999.0,97,0.01,,,0.01,Wunderground v.1.15,2013-03-24 10:37:00,
2013-03-24 05:40:00,65.4,64.5,29.73,West,279,3.0,3.0,97,0.00,,,0.01,Wunderground v.1.15,2013-03-24 10:40:00,
2013-03-24 05:42:00,65.2,64.3,29.72,WNW,293,2.0,-999.0,97,0.01,,,0.01,Wunderground v.1.15,2013-03-24 10:42:00,
2013-03-24 05:45:00,65.6,64.7,29.74,NW,304,2.0,3.0,97,0.00,,,0.01,Wunderground v.1.15,2013-03-24 10:45:00,
2013-03-24 05:47:00,66.1,65.2,29.79,NW,315,3.0,-999.0,97,0.00,,,0.01,Wunderground v.1.15,2013-03-24 10:47:00,
2013-03-24 05:50:00,65.8,64.9,29.78,NNW,332,3.0,4.0,97,0.00,,,0.01,Wunderground v.1.15,2013-03-24 10:50:00,
2013-03-24 05:52:00,66.1,65.2,29.79,NW,315,3.0,-999.0,97,0.00,,,0.01,Wunderground v.1.15,2013-03-24 10:52:00,
2013-03-24 05:55:00,66.2,65.3,29.78,NE,46,4.0,4.0,97,0.00,,,0.01,Wunderground v.1.15,2013-03-24 10:55:00,
2013-03-24 05:57:00,66.1,65.2,29.79,NW,315,3.0,-999.0,97,0.00,,,0.01,Wunderground v.1.15,2013-03-24 10:57:00,
2013-03-24 06:00:00,66.1,65.2,29.79,WNW,293,5.0,5.0,97,0.00,,,0.01,Wunderground v.1.15,2013-03-24 11:00:00,
2013-03-24 06:02:00,66.1,65.2,29.79,NW,315,3.0,-999.0,97,0.00,,,0.01,Wunderground v.1.15,2013-03-24 11:02:00,
2013-03-24 06:07:00,66.1,65.2,29.79,NW,315,3.0,-999.0,97,0.00,,,0.01,Wunderground v.1.15,2013-03-24 11:07:00,
2013-03-24 06:10:00,65.8,64.9,29.79,North,6,4.0,4.0,97,0.00,,,0.01,Wunderground v.1.15,2013-03-24 11:10:00,
2013-03-24 06:12:00,66.1,65.2,29.79,NW,315,3.0,-999.0,97,0.00,,,0.01,Wunderground v.1.15,2013-03-24 11:12:00,
2013-03-24 06:15:00,65.9,65.0,29.79,NW,323,3.0,4.0,97,0.00,,,0.01,Wunderground v.1.15,2013-03-24 11:15:00,
2013-03-24 06:17:00,66.2,65.3,29.80,NNE,23,4.0,-999.0,97,0.00,,,0.01,Wunderground v.1.15,2013-03-24 11:17:00,
2013-03-24 06:20:00,66.0,65.1,29.80,ENE,67,3.0,6.0,97,0.00,,,0.01,Wunderground v.1.15,2013-03-24 11:20:00,
2013-03-24 06:22:00,66.2,65.3,29.80,NNE,23,4.0,-999.0,97,0.00,,,0.01,Wunderground v.1.15,2013-03-24 11:22:00,
2013-03-24 06:25:00,66.1,65.2,29.80,WNW,293,3.0,7.0,97,0.00,,,0.01,Wunderground v.1.15,2013-03-24 11:25:00,
2013-03-24 06:27:00,66.2,65.3,29.80,NNE,23,4.0,-999.0,97,0.00,,,0.01,Wunderground v.1.15,2013-03-24 11:27:00,
2013-03-24 06:30:00,66.2,65.3,29.80,NE,44,4.0,9.0,97,0.00,,,0.01,Wunderground v.1.15,2013-03-24 11:30:00,
2013-03-24 06:32:00,66.2,65.3,29.80,NNE,23,4.0,-999.0,97,0.00,,,0.01,Wunderground v.1.15,2013-03-24 11:32:00,
2013-03-24 06:37:00,66.2,65.3,29.80,NNE,23,4.0,-999.0,97,0.00,,,0.01,Wunderground v.1.15,2013-03-24 11:37:00,
2013-03-24 06:40:00,66.0,64.8,29.81,NW,304,5.0,5.0,96,0.00,,,0.01,Wunderground v.1.15,2013-03-24 11:40:00,
2013-03-24 06:42:00,66.2,65.3,29.80,NNE,23,4.0,-999.0,97,0.00,,,0.01,Wunderground v.1.15,2013-03-24 11:42:00,
2013-03-24 06:45:00,65.9,64.7,29.82,NNE,26,5.0,7.0,96,0.00,,,0.01,Wunderground v.1.15,2013-03-24 11:45:00,
2013-03-24 06:47:00,63.4,61.3,29.85,NE,45,7.0,-999.0,93,0.00,,,0.01,Wunderground v.1.15,2013-03-24 11:47:00,
2013-03-24 06:50:00,65.1,63.3,29.83,NNE,29,7.0,12.0,94,0.00,,,0.01,Wunderground v.1.15,2013-03-24 11:50:00,
2013-03-24 06:52:00,63.4,61.3,29.85,NE,45,7.0,-999.0,93,0.00,,,0.01,Wunderground v.1.15,2013-03-24 11:52:00,
2013-03-24 06:55:00,64.3,62.5,29.84,NE,41,9.0,12.0,94,0.00,,,0.01,Wunderground v.1.15,2013-03-24 11:55:00,
2013-03-24 06:57:00,63.4,61.3,29.85,NE,45,7.0,-999.0,93,0.00,,,0.01,Wunderground v.1.15,2013-03-24 11:57:00,
2013-03-24 07:00:00,63.4,61.3,29.85,NE,40,9.0,9.0,93,0.00,,,0.01,Wunderground v.1.15,2013-03-24 12:00:00,
2013-03-24 07:02:00,63.4,61.3,29.85,NE,45,7.0,-999.0,93,0.00,,,0.01,Wunderground v.1.15,2013-03-24 12:02:00,
2013-03-24 07:07:00,63.4,61.3,29.85,NE,45,7.0,-999.0,93,0.00,,,0.01,Wunderground v.1.15,2013-03-24 12:07:00,
2013-03-24 07:10:00,62.3,59.6,29.86,NE,55,9.0,9.0,91,0.00,,,0.01,Wunderground v.1.15,2013-03-24 12:10:00,
2013-03-24 07:12:00,63.4,61.3,29.85,NE,45,7.0,-999.0,93,0.00,,,0.01,Wunderground v.1.15,2013-03-24 12:12:00,
2013-03-24 07:15:00,62.2,58.9,29.87,NNE,27,8.0,9.0,89,0.00,,,0.01,Wunderground v.1.15,2013-03-24 12:15:00,
2013-03-24 07:17:00,61.7,56.8,29.88,NE,45,8.0,-999.0,84,0.00,,,0.01,Wunderground v.1.15,2013-03-24 12:17:00,
2013-03-24 07:20:00,61.9,57.7,29.87,NE,40,8.0,8.0,86,0.00,,,0.01,Wunderground v.1.15,2013-03-24 12:20:00,
2013-03-24 07:22:00,61.7,56.8,29.88,NE,45,8.0,-999.0,84,0.00,,,0.01,Wunderground v.1.15,2013-03-24 12:22:00,
2013-03-24 07:25:00,61.9,57.3,29.88,NNE,25,8.0,10.0,85,0.00,,,0.01,Wunderground v.1.15,2013-03-24 12:25:00,
2013-03-24 07:27:00,61.7,56.8,29.88,NE,45,8.0,-999.0,84,0.00,,,0.01,Wunderground v.1.15,2013-03-24 12:27:00,
2013-03-24 07:30:00,61.7,56.8,29.88,NE,37,8.0,8.0,84,0.00,,,0.01,Wunderground v.1.15,2013-03-24 12:30:00,
2013-03-24 07:32:00,61.7,56.8,29.88,NE,45,8.0,-999.0,84,0.00,,,0.01,Wunderground v.1.15,2013-03-24 12:32:00,
2013-03-24 07:35:00,61.6,56.4,29.89,NNW,347,9.0,9.0,83,0.00,,,0.01,Wunderground v.1.15,2013-03-24 12:35:00,
2013-03-24 07:37:00,61.7,56.8,29.88,NE,45,8.0,-999.0,84,0.00,,,0.01,Wunderground v.1.15,2013-03-24 12:37:00,
2013-03-24 07:42:00,61.7,56.8,29.88,NE,45,8.0,-999.0,84,0.00,,,0.01,Wunderground v.1.15,2013-03-24 12:42:00,
2013-03-24 07:45:00,61.6,56.7,29.89,WNW,293,6.0,7.0,84,0.00,,,0.01,Wunderground v.1.15,2013-03-24 12:45:00,
2013-03-24 07:47:00,61.4,55.2,29.91,NNE,23,6.0,-999.0,80,0.00,,,0.01,Wunderground v.1.15,2013-03-24 12:47:00,
2013-03-24 07:50:00,61.6,56.4,29.90,NNW,343,5.0,5.0,83,0.00,,,0.01,Wunderground v.1.15,2013-03-24 12:50:00,
2013-03-24 07:52:00,61.4,55.2,29.91,NNE,23,6.0,-999.0,80,0.00,,,0.01,Wunderground v.1.15,2013-03-24 12:52:00,
2013-03-24 07:55:00,61.5,56.0,29.90,NNE,12,5.0,5.0,82,0.00,,,0.01,Wunderground v.1.15,2013-03-24 12:55:00,
2013-03-24 07:57:00,61.4,55.2,29.91,NNE,23,6.0,-999.0,80,0.00,,,0.01,Wunderground v.1.15,2013-03-24 12:57:00,
2013-03-24 08:00:00,61.4,55.2,29.91,NE,49,6.0,6.0,80,0.00,,,0.01,Wunderground v.1.15,2013-03-24 13:00:00,
2013-03-24 08:02:00,61.4,55.2,29.91,NNE,23,6.0,-999.0,80,0.00,,,0.01,Wunderground v.1.15,2013-03-24 13:02:00,
2013-03-24 08:07:00,61.4,55.2,29.91,NNE,23,6.0,-999.0,80,0.00,,,0.01,Wunderground v.1.15,2013-03-24 13:07:00,
2013-03-24 08:10:00,61.1,53.5,29.92,NNE,26,7.0,7.0,76,0.00,,,0.01,Wunderground v.1.15,2013-03-24 13:10:00,
2013-03-24 08:12:00,61.4,55.2,29.91,NNE,23,6.0,-999.0,80,0.00,,,0.01,Wunderground v.1.15,2013-03-24 13:12:00,
2013-03-24 08:17:00,60.6,53.3,29.93,NNE,23,7.0,-999.0,77,0.00,,,0.01,Wunderground v.1.15,2013-03-24 13:17:00,
2013-03-24 08:20:00,60.8,53.2,29.93,NNW,343,7.0,10.0,76,0.00,,,0.01,Wunderground v.1.15,2013-03-24 13:20:00,
2013-03-24 08:22:00,60.6,53.3,29.93,NNE,23,7.0,-999.0,77,0.00,,,0.01,Wunderground v.1.15,2013-03-24 13:22:00,
2013-03-24 08:25:00,60.7,53.8,29.93,NNE,29,7.0,10.0,78,0.00,,,0.01,Wunderground v.1.15,2013-03-24 13:25:00,
2013-03-24 08:27:00,60.6,53.3,29.93,NNE,23,7.0,-999.0,77,0.00,,,0.01,Wunderground v.1.15,2013-03-24 13:27:00,
2013-03-24 08:30:00,60.6,53.3,29.93,North,7,6.0,6.0,77,0.00,,,0.01,Wunderground v.1.15,2013-03-24 13:30:00,
2013-03-24 08:32:00,60.6,53.3,29.93,NNE,23,7.0,-999.0,77,0.00,,,0.01,Wunderground v.1.15,2013-03-24 13:32:00,
2013-03-24 08:35:00,60.5,53.3,29.94,North,349,7.0,9.0,77,0.00,,,0.01,Wunderground v.1.15,2013-03-24 13:35:00,
2013-03-24 08:37:00,60.6,53.3,29.93,NNE,23,7.0,-999.0,77,0.00,,,0.01,Wunderground v.1.15,2013-03-24 13:37:00,
2013-03-24 08:40:00,60.3,52.7,29.94,North,1,7.0,7.0,76,0.00,,,0.01,Wunderground v.1.15,2013-03-24 13:40:00,
2013-03-24 08:42:00,60.6,53.3,29.93,NNE,23,7.0,-999.0,77,0.00,,,0.01,Wunderground v.1.15,2013-03-24 13:42:00,
2013-03-24 08:47:00,60.5,52.2,29.95,NNE,23,7.0,-999.0,74,0.00,,,0.01,Wunderground v.1.15,2013-03-24 13:47:00,
2013-03-24 08:50:00,60.5,52.9,29.95,North,354,6.0,6.0,76,0.00,,,0.01,Wunderground v.1.15,2013-03-24 13:50:00,
2013-03-24 08:52:00,60.5,52.2,29.95,NNE,23,7.0,-999.0,74,0.00,,,0.01,Wunderground v.1.15,2013-03-24 13:52:00,
2013-03-24 08:55:00,60.5,52.9,29.95,NW,309,6.0,10.0,76,0.00,,,0.01,Wunderground v.1.15,2013-03-24 13:55:00,
2013-03-24 08:57:00,60.5,52.2,29.95,NNE,23,7.0,-999.0,74,0.00,,,0.01,Wunderground v.1.15,2013-03-24 13:57:00,
2013-03-24 09:00:00,60.5,52.2,29.95,North,354,7.0,7.0,74,0.00,,,0.01,Wunderground v.1.15,2013-03-24 14:00:00,
2013-03-24 09:02:00,60.5,52.2,29.95,NNE,23,7.0,-999.0,74,0.00,,,0.01,Wunderground v.1.15,2013-03-24 14:02:00,
2013-03-24 09:07:00,60.5,52.2,29.95,NNE,23,7.0,-999.0,74,0.00,,,0.01,Wunderground v.1.15,2013-03-24 14:07:00,
2013-03-24 09:10:00,60.6,51.1,29.96,ENE,68,7.0,7.0,71,0.00,,,0.01,Wunderground v.1.15,2013-03-24 14:10:00,
2013-03-24 09:12:00,60.5,52.2,29.95,NNE,23,7.0,-999.0,74,0.00,,,0.01,Wunderground v.1.15,2013-03-24 14:12:00,
2013-03-24 09:15:00,60.6,50.8,29.96,NNW,338,8.0,8.0,70,0.00,,,0.01,Wunderground v.1.15,2013-03-24 14:15:00,
2013-03-24 09:17:00,61.1,51.2,29.96,NNE,23,7.0,-999.0,70,0.00,,,0.01,Wunderground v.1.15,2013-03-24 14:17:00,
2013-03-24 09:22:00,61.1,51.2,29.96,NNE,23,7.0,-999.0,70,0.00,,,0.01,Wunderground v.1.15,2013-03-24 14:22:00,
2013-03-24 09:25:00,60.9,51.4,29.96,NNE,33,7.0,8.0,71,0.00,,,0.01,Wunderground v.1.15,2013-03-24 14:25:00,
2013-03-24 09:27:00,61.1,51.2,29.96,NNE,23,7.0,-999.0,70,0.00,,,0.01,Wunderground v.1.15,2013-03-24 14:27:00,
2013-03-24 09:30:00,61.1,51.2,29.97,WNW,291,7.0,8.0,70,0.00,,,0.01,Wunderground v.1.15,2013-03-24 14:30:00,
2013-03-24 09:32:00,61.1,51.2,29.96,NNE,23,7.0,-999.0,70,0.00,,,0.01,Wunderground v.1.15,2013-03-24 14:32:00,
2013-03-24 09:35:00,61.0,49.6,29.97,NW,309,7.0,8.0,66,0.00,,,0.01,Wunderground v.1.15,2013-03-24 14:35:00,
2013-03-24 09:37:00,61.1,51.2,29.96,NNE,23,7.0,-999.0,70,0.00,,,0.01,Wunderground v.1.15,2013-03-24 14:37:00,
2013-03-24 09:40:00,61.1,48.4,29.97,NNE,32,7.0,12.0,63,0.00,,,0.01,Wunderground v.1.15,2013-03-24 14:40:00,
2013-03-24 09:42:00,61.1,51.2,29.96,NNE,23,7.0,-999.0,70,0.00,,,0.01,Wunderground v.1.15,2013-03-24 14:42:00,
2013-03-24 09:45:00,61.2,47.6,29.97,North,358,7.0,12.0,61,0.00,,,0.01,Wunderground v.1.15,2013-03-24 14:45:00,
2013-03-24 09:47:00,60.9,46.9,29.99,NNW,338,7.0,-999.0,60,0.00,,,0.01,Wunderground v.1.15,2013-03-24 14:47:00,
2013-03-24 09:52:00,60.9,46.9,29.99,NNW,338,7.0,-999.0,60,0.00,,,0.01,Wunderground v.1.15,2013-03-24 14:52:00,
2013-03-24 09:55:00,61.0,47.0,29.98,NE,39,8.0,8.0,60,0.00,,,0.01,Wunderground v.1.15,2013-03-24 14:55:00,
2013-03-24 09:57:00,60.9,46.9,29.99,NNW,338,7.0,-999.0,60,0.00,,,0.01,Wunderground v.1.15,2013-03-24 14:57:00,
2013-03-24 10:00:00,61.0,47.0,29.99,WNW,300,8.0,8.0,60,0.00,,,0.01,Wunderground v.1.15,2013-03-24 15:00:00,
2013-03-24 10:02:00,60.9,46.9,29.99,NNW,338,7.0,-999.0,60,0.00,,,0.01,Wunderground v.1.15,2013-03-24 15:02:00,
2013-03-24 10:07:00,60.9,46.9,29.99,NNW,338,7.0,-999.0,60,0.00,,,0.01,Wunderground v.1.15,2013-03-24 15:07:00,
2013-03-24 10:10:00,60.7,43.5,30.00,NW,312,9.0,10.0,53,0.00,,,0.01,Wunderground v.1.15,2013-03-24 15:10:00,
2013-03-24 10:12:00,60.9,46.9,29.99,NNW,338,7.0,-999.0,60,0.00,,,0.01,Wunderground v.1.15,2013-03-24 15:12:00,
2013-03-24 10:15:00,60.6,41.8,30.00,NE,47,9.0,10.0,50,0.00,,,0.01,Wunderground v.1.15,2013-03-24 15:15:00,
2013-03-24 10:17:00,60.7,41.4,30.00,NNE,23,9.0,-999.0,49,0.00,,,0.01,Wunderground v.1.15,2013-03-24 15:17:00,
2013-03-24 10:22:00,60.7,41.4,30.00,NNE,23,9.0,-999.0,49,0.00,,,0.01,Wunderground v.1.15,2013-03-24 15:22:00,
2013-03-24 10:27:00,60.7,41.4,30.00,NNE,23,9.0,-999.0,49,0.00,,,0.01,Wunderground v.1.15,2013-03-24 15:27:00,
2013-03-24 10:32:00,60.7,41.4,30.00,NNE,23,9.0,-999.0,49,0.00,,,0.01,Wunderground v.1.15,2013-03-24 15:32:00,
2013-03-24 10:37:00,60.7,41.4,30.00,NNE,23,9.0,-999.0,49,0.00,,,0.01,Wunderground v.1.15,2013-03-24 15:37:00,
2013-03-24 10:42:00,60.7,41.4,30.00,NNE,23,9.0,-999.0,49,0.00,,,0.01,Wunderground v.1.15,2013-03-24 15:42:00,
2013-03-24 10:47:00,62.1,42.7,30.01,NNE,23,6.0,-999.0,49,0.00,,,0.01,Wunderground v.1.15,2013-03-24 15:47:00,
2013-03-24 10:52:00,62.1,42.7,30.01,NNE,23,6.0,-999.0,49,0.00,,,0.01,Wunderground v.1.15,2013-03-24 15:52:00,
2013-03-24 10:57:00,62.1,42.7,30.01,NNE,23,6.0,-999.0,49,0.00,,,0.01,Wunderground v.1.15,2013-03-24 15:57:00,
2013-03-24 11:02:00,62.1,42.7,30.01,NNE,23,6.0,-999.0,49,0.00,,,0.01,Wunderground v.1.15,2013-03-24 16:02:00,
2013-03-24 11:07:00,62.1,42.7,30.01,NNE,23,6.0,-999.0,49,0.00,,,0.01,Wunderground v.1.15,2013-03-24 16:07:00,
2013-03-24 11:12:00,62.1,42.7,30.01,NNE,23,6.0,-999.0,49,0.00,,,0.01,Wunderground v.1.15,2013-03-24 16:12:00,
2013-03-24 11:17:00,61.2,39.7,30.03,NW,315,8.0,-999.0,45,0.00,,,0.01,Wunderground v.1.15,2013-03-24 16:17:00,
2013-03-24 11:22:00,61.2,39.7,30.03,NW,315,8.0,-999.0,45,0.00,,,0.01,Wunderground v.1.15,2013-03-24 16:22:00,
2013-03-24 11:27:00,61.2,39.7,30.03,NW,315,8.0,-999.0,45,0.00,,,0.01,Wunderground v.1.15,2013-03-24 16:27:00,
2013-03-24 11:32:00,61.2,39.7,30.03,NW,315,8.0,-999.0,45,0.00,,,0.01,Wunderground v.1.15,2013-03-24 16:32:00,
2013-03-24 11:37:00,61.2,39.7,30.03,NW,315,8.0,-999.0,45,0.00,,,0.01,Wunderground v.1.15,2013-03-24 16:37:00,
2013-03-24 11:42:00,61.2,39.7,30.03,NW,315,8.0,-999.0,45,0.00,,,0.01,Wunderground v.1.15,2013-03-24 16:42:00,
2013-03-24 11:47:00,63.0,34.9,30.03,NNE,23,7.0,-999.0,35,0.00,,,0.01,Wunderground v.1.15,2013-03-24 16:47:00,
2013-03-24 11:52:00,63.0,34.9,30.03,NNE,23,7.0,-999.0,35,0.00,,,0.01,Wunderground v.1.15,2013-03-24 16:52:00,
2013-03-24 11:57:00,63.0,34.9,30.03,NNE,23,7.0,-999.0,35,0.00,,,0.01,Wunderground v.1.15,2013-03-24 16:57:00,
2013-03-24 12:02:00,63.0,34.9,30.03,NNE,23,7.0,-999.0,35,0.00,,,0.01,Wunderground v.1.15,2013-03-24 17:02:00,
2013-03-24 12:07:00,63.0,34.9,30.03,NNE,23,7.0,-999.0,35,0.00,,,0.01,Wunderground v.1.15,2013-03-24 17:07:00,
2013-03-24 12:12:00,63.0,34.9,30.03,NNE,23,7.0,-999.0,35,0.00,,,0.01,Wunderground v.1.15,2013-03-24 17:12:00,
2013-03-24 12:17:00,63.8,33.4,30.04,NNE,23,6.0,-999.0,32,0.00,,,0.01,Wunderground v.1.15,2013-03-24 17:17:00,
2013-03-24 12:22:00,63.8,33.4,30.04,NNE,23,6.0,-999.0,32,0.00,,,0.01,Wunderground v.1.15,2013-03-24 17:22:00,
2013-03-24 12:27:00,63.8,33.4,30.04,NNE,23,6.0,-999.0,32,0.00,,,0.01,Wunderground v.1.15,2013-03-24 17:27:00,
2013-03-24 12:32:00,63.8,33.4,30.04,NNE,23,6.0,-999.0,32,0.00,,,0.01,Wunderground v.1.15,2013-03-24 17:32:00,
2013-03-24 12:37:00,63.8,33.4,30.04,NNE,23,6.0,-999.0,32,0.00,,,0.01,Wunderground v.1.15,2013-03-24 17:37:00,
2013-03-24 12:42:00,63.8,33.4,30.04,NNE,23,6.0,-999.0,32,0.00,,,0.01,Wunderground v.1.15,2013-03-24 17:42:00,
2013-03-24 12:47:00,65.5,30.6,30.03,NNE,23,6.0,-999.0,27,0.00,,,0.01,Wunderground v.1.15,2013-03-24 17:47:00,
2013-03-24 12:52:00,65.5,30.6,30.03,NNE,23,6.0,-999.0,27,0.00,,,0.01,Wunderground v.1.15,2013-03-24 17:52:00,
2013-03-24 12:57:00,65.5,30.6,30.03,NNE,23,6.0,-999.0,27,0.00,,,0.01,Wunderground v.1.15,2013-03-24 17:57:00,
2013-03-24 13:02:00,65.5,30.6,30.03,NNE,23,6.0,-999.0,27,0.00,,,0.01,Wunderground v.1.15,2013-03-24 18:02:00,
2013-03-24 13:07:00,65.5,30.6,30.03,NNE,23,6.0,-999.0,27,0.00,,,0.01,Wunderground v.1.15,2013-03-24 18:07:00,
2013-03-24 13:12:00,65.5,30.6,30.03,NNE,23,6.0,-999.0,27,0.00,,,0.01,Wunderground v.1.15,2013-03-24 18:12:00,
2013-03-24 13:17:00,65.9,28.1,30.02,NNE,23,6.0,-999.0,24,0.00,,,0.01,Wunderground v.1.15,2013-03-24 18:17:00,
2013-03-24 13:22:00,65.9,28.1,30.02,NNE,23,6.0,-999.0,24,0.00,,,0.01,Wunderground v.1.15,2013-03-24 18:22:00,
2013-03-24 13:27:00,65.9,28.1,30.02,NNE,23,6.0,-999.0,24,0.00,,,0.01,Wunderground v.1.15,2013-03-24 18:27:00,
2013-03-24 13:32:00,65.9,28.1,30.02,NNE,23,6.0,-999.0,24,0.00,,,0.01,Wunderground v.1.15,2013-03-24 18:32:00,
2013-03-24 13:37:00,65.9,28.1,30.02,NNE,23,6.0,-999.0,24,0.00,,,0.01,Wunderground v.1.15,2013-03-24 18:37:00,
2013-03-24 13:42:00,65.9,28.1,30.02,NNE,23,6.0,-999.0,24,0.00,,,0.01,Wunderground v.1.15,2013-03-24 18:42:00,
2013-03-24 13:47:00,66.7,28.7,30.00,NW,315,7.0,-999.0,24,0.00,,,0.01,Wunderground v.1.15,2013-03-24 18:47:00,
2013-03-24 13:52:00,66.7,28.7,30.00,NW,315,7.0,-999.0,24,0.00,,,0.01,Wunderground v.1.15,2013-03-24 18:52:00,
2013-03-24 13:57:00,66.7,28.7,30.00,NW,315,7.0,-999.0,24,0.00,,,0.01,Wunderground v.1.15,2013-03-24 18:57:00,
2013-03-24 14:02:00,66.7,28.7,30.00,NW,315,7.0,-999.0,24,0.00,,,0.01,Wunderground v.1.15,2013-03-24 19:02:00,
2013-03-24 14:07:00,66.7,28.7,30.00,NW,315,7.0,-999.0,24,0.00,,,0.01,Wunderground v.1.15,2013-03-24 19:07:00,
2013-03-24 14:12:00,66.7,28.7,30.00,NW,315,7.0,-999.0,24,0.00,,,0.01,Wunderground v.1.15,2013-03-24 19:12:00,
2013-03-24 14:17:00,66.7,29.7,29.99,NNE,23,6.0,-999.0,25,0.00,,,0.01,Wunderground v.1.15,2013-03-24 19:17:00,
2013-03-24 14:22:00,66.7,29.7,29.99,NNE,23,6.0,-999.0,25,0.00,,,0.01,Wunderground v.1.15,2013-03-24 19:22:00,
2013-03-24 14:27:00,66.7,29.7,29.99,NNE,23,6.0,-999.0,25,0.00,,,0.01,Wunderground v.1.15,2013-03-24 19:27:00,
2013-03-24 14:32:00,66.7,29.7,29.99,NNE,23,6.0,-999.0,25,0.00,,,0.01,Wunderground v.1.15,2013-03-24 19:32:00,
2013-03-24 14:37:00,66.7,29.7,29.99,NNE,23,6.0,-999.0,25,0.00,,,0.01,Wunderground v.1.15,2013-03-24 19:37:00,
2013-03-24 14:42:00,66.7,29.7,29.99,NNE,23,6.0,-999.0,25,0.00,,,0.01,Wunderground v.1.15,2013-03-24 19:42:00,
2013-03-24 14:47:00,67.5,28.4,29.98,NNE,23,5.0,-999.0,23,0.00,,,0.01,Wunderground v.1.15,2013-03-24 19:47:00,
2013-03-24 14:52:00,67.5,28.4,29.98,NNE,23,5.0,-999.0,23,0.00,,,0.01,Wunderground v.1.15,2013-03-24 19:52:00,
2013-03-24 14:57:00,67.5,28.4,29.98,NNE,23,5.0,-999.0,23,0.00,,,0.01,Wunderground v.1.15,2013-03-24 19:57:00,
2013-03-24 15:02:00,67.5,28.4,29.98,NNE,23,5.0,-999.0,23,0.00,,,0.01,Wunderground v.1.15,2013-03-24 20:02:00,
2013-03-24 15:07:00,67.5,28.4,29.98,NNE,23,5.0,-999.0,23,0.00,,,0.01,Wunderground v.1.15,2013-03-24 20:07:00,
2013-03-24 15:12:00,67.5,28.4,29.98,NNE,23,5.0,-999.0,23,0.00,,,0.01,Wunderground v.1.15,2013-03-24 20:12:00,
2013-03-24 15:17:00,67.6,25.1,29.97,NNE,23,5.0,-999.0,20,0.00,,,0.01,Wunderground v.1.15,2013-03-24 20:17:00,
2013-03-24 15:22:00,67.6,25.1,29.97,NNE,23,5.0,-999.0,20,0.00,,,0.01,Wunderground v.1.15,2013-03-24 20:22:00,
2013-03-24 15:27:00,67.6,25.1,29.97,NNE,23,5.0,-999.0,20,0.00,,,0.01,Wunderground v.1.15,2013-03-24 20:27:00,
2013-03-24 15:32:00,67.6,25.1,29.97,NNE,23,5.0,-999.0,20,0.00,,,0.01,Wunderground v.1.15,2013-03-24 20:32:00,
2013-03-24 15:37:00,67.6,25.1,29.97,NNE,23,5.0,-999.0,20,0.00,,,0.01,Wunderground v.1.15,2013-03-24 20:37:00,
2013-03-24 15:42:00,67.6,25.1,29.97,NNE,23,5.0,-999.0,20,0.00,,,0.01,Wunderground v.1.15,2013-03-24 20:42:00,
2013-03-24 15:47:00,66.8,26.7,29.96,NNE,23,5.0,-999.0,22,0.00,,,0.01,Wunderground v.1.15,2013-03-24 20:47:00,
2013-03-24 15:52:00,66.8,26.7,29.96,NNE,23,5.0,-999.0,22,0.00,,,0.01,Wunderground v.1.15,2013-03-24 20:52:00,
2013-03-24 15:57:00,66.8,26.7,29.96,NNE,23,5.0,-999.0,22,0.00,,,0.01,Wunderground v.1.15,2013-03-24 20:57:00,
2013-03-24 16:02:00,66.8,26.7,29.96,NNE,23,5.0,-999.0,22,0.00,,,0.01,Wunderground v.1.15,2013-03-24 21:02:00,
2013-03-24 16:07:00,66.8,26.7,29.96,NNE,23,5.0,-999.0,22,0.00,,,0.01,Wunderground v.1.15,2013-03-24 21:07:00,
2013-03-24 16:12:00,66.8,26.7,29.96,NNE,23,5.0,-999.0,22,0.00,,,0.01,Wunderground v.1.15,2013-03-24 21:12:00,
2013-03-24 16:17:00,66.1,26.1,29.95,NNE,23,5.0,-999.0,22,0.00,,,0.01,Wunderground v.1.15,2013-03-24 21:17:00,
2013-03-24 16:22:00,66.1,26.1,29.95,NNE,23,5.0,-999.0,22,0.00,,,0.01,Wunderground v.1.15,2013-03-24 21:22:00,
2013-03-24 16:27:00,66.1,26.1,29.95,NNE,23,5.0,-999.0,22,0.00,,,0.01,Wunderground v.1.15,2013-03-24 21:27:00,
2013-03-24 16:32:00,66.1,26.1,29.95,NNE,23,5.0,-999.0,22,0.00,,,0.01,Wunderground v.1.15,2013-03-24 21:32:00,
2013-03-24 16:37:00,66.1,26.1,29.95,NNE,23,5.0,-999.0,22,0.00,,,0.01,Wunderground v.1.15,2013-03-24 21:37:00,
2013-03-24 16:42:00,66.1,26.1,29.95,NNE,23,5.0,-999.0,22,0.00,,,0.01,Wunderground v.1.15,2013-03-24 21:42:00,
2013-03-24 16:47:00,66.2,23.9,29.95,NNE,23,5.0,-999.0,20,0.00,,,0.01,Wunderground v.1.15,2013-03-24 21:47:00,
2013-03-24 16:52:00,66.2,23.9,29.95,NNE,23,5.0,-999.0,20,0.00,,,0.01,Wunderground v.1.15,2013-03-24 21:52:00,
2013-03-24 16:57:00,66.2,23.9,29.95,NNE,23,5.0,-999.0,20,0.00,,,0.01,Wunderground v.1.15,2013-03-24 21:57:00,
2013-03-24 17:02:00,66.2,23.9,29.95,NNE,23,5.0,-999.0,20,0.00,,,0.01,Wunderground v.1.15,2013-03-24 22:02:00,
2013-03-24 17:07:00,66.2,23.9,29.95,NNE,23,5.0,-999.0,20,0.00,,,0.01,Wunderground v.1.15,2013-03-24 22:07:00,
2013-03-24 17:12:00,66.2,23.9,29.95,NNE,23,5.0,-999.0,20,0.00,,,0.01,Wunderground v.1.15,2013-03-24 22:12:00,
2013-03-24 17:17:00,66.1,27.2,29.94,NNE,23,3.0,-999.0,23,0.00,,,0.01,Wunderground v.1.15,2013-03-24 22:17:00,
2013-03-24 17:22:00,66.1,27.2,29.94,NNE,23,3.0,-999.0,23,0.00,,,0.01,Wunderground v.1.15,2013-03-24 22:22:00,
2013-03-24 17:27:00,66.1,27.2,29.94,NNE,23,3.0,-999.0,23,0.00,,,0.01,Wunderground v.1.15,2013-03-24 22:27:00,
2013-03-24 17:32:00,66.1,27.2,29.94,NNE,23,3.0,-999.0,23,0.00,,,0.01,Wunderground v.1.15,2013-03-24 22:32:00,
2013-03-24 17:37:00,66.1,27.2,29.94,NNE,23,3.0,-999.0,23,0.00,,,0.01,Wunderground v.1.15,2013-03-24 22:37:00,
2013-03-24 17:42:00,66.1,27.2,29.94,NNE,23,3.0,-999.0,23,0.00,,,0.01,Wunderground v.1.15,2013-03-24 22:42:00,
2013-03-24 17:47:00,66.3,27.4,29.94,NNE,23,4.0,-999.0,23,0.00,,,0.01,Wunderground v.1.15,2013-03-24 22:47:00,
2013-03-24 17:52:00,66.3,27.4,29.94,NNE,23,4.0,-999.0,23,0.00,,,0.01,Wunderground v.1.15,2013-03-24 22:52:00,
2013-03-24 17:57:00,66.3,27.4,29.94,NNE,23,4.0,-999.0,23,0.00,,,0.01,Wunderground v.1.15,2013-03-24 22:57:00,
2013-03-24 18:02:00,66.3,27.4,29.94,NNE,23,4.0,-999.0,23,0.00,,,0.01,Wunderground v.1.15,2013-03-24 23:02:00,
2013-03-24 18:07:00,66.3,27.4,29.94,NNE,23,4.0,-999.0,23,0.00,,,0.01,Wunderground v.1.15,2013-03-24 23:07:00,
2013-03-24 18:12:00,66.3,27.4,29.94,NNE,23,4.0,-999.0,23,0.00,,,0.01,Wunderground v.1.15,2013-03-24 23:12:00,
2013-03-24 18:17:00,66.3,28.4,29.95,NNE,23,4.0,-999.0,24,0.00,,,0.01,Wunderground v.1.15,2013-03-24 23:17:00,
2013-03-24 18:22:00,66.3,28.4,29.95,NNE,23,4.0,-999.0,24,0.00,,,0.01,Wunderground v.1.15,2013-03-24 23:22:00,
2013-03-24 18:27:00,66.3,28.4,29.95,NNE,23,4.0,-999.0,24,0.00,,,0.01,Wunderground v.1.15,2013-03-24 23:27:00,
2013-03-24 18:32:00,66.3,28.4,29.95,NNE,23,4.0,-999.0,24,0.00,,,0.01,Wunderground v.1.15,2013-03-24 23:32:00,
2013-03-24 18:37:00,66.3,28.4,29.95,NNE,23,4.0,-999.0,24,0.00,,,0.01,Wunderground v.1.15,2013-03-24 23:37:00,
2013-03-24 18:42:00,66.3,28.4,29.95,NNE,23,4.0,-999.0,24,0.00,,,0.01,Wunderground v.1.15,2013-03-24 23:42:00,
2013-03-24 18:47:00,65.0,27.3,29.96,NE,45,3.0,-999.0,24,0.00,,,0.01,Wunderground v.1.15,2013-03-24 23:47:00,
2013-03-24 18:52:00,65.0,27.3,29.96,NE,45,3.0,-999.0,24,0.00,,,0.01,Wunderground v.1.15,2013-03-24 23:52:00,
2013-03-24 18:57:00,65.0,27.3,29.96,NE,45,3.0,-999.0,24,0.00,,,0.01,Wunderground v.1.15,2013-03-24 23:57:00,
2013-03-24 19:02:00,65.0,27.3,29.96,NE,45,3.0,-999.0,24,0.00,,,0.01,Wunderground v.1.15,2013-03-25 00:02:00,
2013-03-24 19:07:00,65.0,27.3,29.96,NE,45,3.0,-999.0,24,0.00,,,0.01,Wunderground v.1.15,2013-03-25 00:07:00,
2013-03-24 19:12:00,65.0,27.3,29.96,NE,45,3.0,-999.0,24,0.00,,,0.01,Wunderground v.1.15,2013-03-25 00:12:00,
2013-03-24 19:17:00,63.8,29.1,29.97,NNE,23,3.0,-999.0,27,0.00,,,0.01,Wunderground v.1.15,2013-03-25 00:17:00,
2013-03-24 19:22:00,63.8,29.1,29.97,NNE,23,3.0,-999.0,27,0.00,,,0.01,Wunderground v.1.15,2013-03-25 00:22:00,
2013-03-24 19:27:00,63.8,29.1,29.97,NNE,23,3.0,-999.0,27,0.00,,,0.01,Wunderground v.1.15,2013-03-25 00:27:00,
2013-03-24 19:32:00,63.8,29.1,29.97,NNE,23,3.0,-999.0,27,0.00,,,0.01,Wunderground v.1.15,2013-03-25 00:32:00,
2013-03-24 19:37:00,63.8,29.1,29.97,NNE,23,3.0,-999.0,27,0.00,,,0.01,Wunderground v.1.15,2013-03-25 00:37:00,
2013-03-24 19:42:00,63.8,29.1,29.97,NNE,23,3.0,-999.0,27,0.00,,,0.01,Wunderground v.1.15,2013-03-25 00:42:00,
2013-03-24 19:47:00,62.8,27.4,29.98,NE,45,4.0,-999.0,26,0.00,,,0.01,Wunderground v.1.15,2013-03-25 00:47:00,
2013-03-24 19:52:00,62.8,27.4,29.98,NE,45,4.0,-999.0,26,0.00,,,0.01,Wunderground v.1.15,2013-03-25 00:52:00,
2013-03-24 19:57:00,62.8,27.4,29.98,NE,45,4.0,-999.0,26,0.00,,,0.01,Wunderground v.1.15,2013-03-25 00:57:00,
2013-03-24 20:02:00,62.8,27.4,29.98,NE,45,4.0,-999.0,26,0.00,,,0.01,Wunderground v.1.15,2013-03-25 01:02:00,
2013-03-24 20:07:00,62.8,27.4,29.98,NE,45,4.0,-999.0,26,0.00,,,0.01,Wunderground v.1.15,2013-03-25 01:07:00,
2013-03-24 20:12:00,62.8,27.4,29.98,NE,45,4.0,-999.0,26,0.00,,,0.01,Wunderground v.1.15,2013-03-25 01:12:00,
2013-03-24 20:17:00,62.2,27.8,30.00,NE,45,4.0,-999.0,27,0.00,,,0.01,Wunderground v.1.15,2013-03-25 01:17:00,
2013-03-24 20:22:00,62.2,27.8,30.00,NE,45,4.0,-999.0,27,0.00,,,0.01,Wunderground v.1.15,2013-03-25 01:22:00,
2013-03-24 20:27:00,62.2,27.8,30.00,NE,45,4.0,-999.0,27,0.00,,,0.01,Wunderground v.1.15,2013-03-25 01:27:00,
2013-03-24 20:32:00,62.2,27.8,30.00,NE,45,4.0,-999.0,27,0.00,,,0.01,Wunderground v.1.15,2013-03-25 01:32:00,
2013-03-24 20:37:00,62.2,27.8,30.00,NE,45,4.0,-999.0,27,0.00,,,0.01,Wunderground v.1.15,2013-03-25 01:37:00,
2013-03-24 20:42:00,62.2,27.8,30.00,NE,45,4.0,-999.0,27,0.00,,,0.01,Wunderground v.1.15,2013-03-25 01:42:00,
2013-03-24 20:47:00,61.6,29.0,30.01,NE,45,5.0,-999.0,29,0.00,,,0.01,Wunderground v.1.15,2013-03-25 01:47:00,
2013-03-24 20:52:00,61.6,29.0,30.01,NE,45,5.0,-999.0,29,0.00,,,0.01,Wunderground v.1.15,2013-03-25 01:52:00,
2013-03-24 20:57:00,61.6,29.0,30.01,NE,45,5.0,-999.0,29,0.00,,,0.01,Wunderground v.1.15,2013-03-25 01:57:00,
2013-03-24 21:02:00,61.6,29.0,30.01,NE,45,5.0,-999.0,29,0.00,,,0.01,Wunderground v.1.15,2013-03-25 02:02:00,
2013-03-24 21:07:00,61.6,29.0,30.01,NE,45,5.0,-999.0,29,0.00,,,0.01,Wunderground v.1.15,2013-03-25 02:07:00,
2013-03-24 21:12:00,61.6,29.0,30.01,NE,45,5.0,-999.0,29,0.00,,,0.01,Wunderground v.1.15,2013-03-25 02:12:00,
2013-03-24 21:17:00,60.5,29.7,30.02,NE,45,6.0,-999.0,31,0.00,,,0.01,Wunderground v.1.15,2013-03-25 02:17:00,
2013-03-24 21:22:00,60.5,29.7,30.02,NE,45,6.0,-999.0,31,0.00,,,0.01,Wunderground v.1.15,2013-03-25 02:22:00,
2013-03-24 21:27:00,60.5,29.7,30.02,NE,45,6.0,-999.0,31,0.00,,,0.01,Wunderground v.1.15,2013-03-25 02:27:00,
2013-03-24 21:32:00,60.5,29.7,30.02,NE,45,6.0,-999.0,31,0.00,,,0.01,Wunderground v.1.15,2013-03-25 02:32:00,
2013-03-24 21:37:00,60.5,29.7,30.02,NE,45,6.0,-999.0,31,0.00,,,0.01,Wunderground v.1.15,2013-03-25 02:37:00,
2013-03-24 21:42:00,60.5,29.7,30.02,NE,45,6.0,-999.0,31,0.00,,,0.01,Wunderground v.1.15,2013-03-25 02:42:00,
2013-03-24 21:47:00,59.8,32.1,30.04,NE,45,6.0,-999.0,35,0.00,,,0.01,Wunderground v.1.15,2013-03-25 02:47:00,
2013-03-24 21:52:00,59.8,32.1,30.04,NE,45,6.0,-999.0,35,0.00,,,0.01,Wunderground v.1.15,2013-03-25 02:52:00,
2013-03-24 21:57:00,59.8,32.1,30.04,NE,45,6.0,-999.0,35,0.00,,,0.01,Wunderground v.1.15,2013-03-25 02:57:00,
2013-03-24 22:02:00,59.8,32.1,30.04,NE,45,6.0,-999.0,35,0.00,,,0.01,Wunderground v.1.15,2013-03-25 03:02:00,
2013-03-24 22:07:00,59.8,32.1,30.04,NE,45,6.0,-999.0,35,0.00,,,0.01,Wunderground v.1.15,2013-03-25 03:07:00,
2013-03-24 22:12:00,59.8,32.1,30.04,NE,45,6.0,-999.0,35,0.00,,,0.01,Wunderground v.1.15,2013-03-25 03:12:00,
2013-03-24 22:17:00,59.1,34.1,30.06,NE,45,7.0,-999.0,39,0.00,,,0.01,Wunderground v.1.15,2013-03-25 03:17:00,
2013-03-24 22:22:00,59.1,34.1,30.06,NE,45,7.0,-999.0,39,0.00,,,0.01,Wunderground v.1.15,2013-03-25 03:22:00,
2013-03-24 22:27:00,59.1,34.1,30.06,NE,45,7.0,-999.0,39,0.00,,,0.01,Wunderground v.1.15,2013-03-25 03:27:00,
2013-03-24 22:32:00,59.1,34.1,30.06,NE,45,7.0,-999.0,39,0.00,,,0.01,Wunderground v.1.15,2013-03-25 03:32:00,
2013-03-24 22:37:00,59.1,34.1,30.06,NE,45,7.0,-999.0,39,0.00,,,0.01,Wunderground v.1.15,2013-03-25 03:37:00,
2013-03-24 22:42:00,59.1,34.1,30.06,NE,45,7.0,-999.0,39,0.00,,,0.01,Wunderground v.1.15,2013-03-25 03:42:00,
2013-03-24 22:47:00,58.4,32.9,30.08,NE,45,7.0,-999.0,38,0.00,,,0.01,Wunderground v.1.15,2013-03-25 03:47:00,
2013-03-24 22:52:00,58.4,32.9,30.08,NE,45,7.0,-999.0,38,0.00,,,0.01,Wunderground v.1.15,2013-03-25 03:52:00,
2013-03-24 22:57:00,58.4,32.9,30.08,NE,45,7.0,-999.0,38,0.00,,,0.01,Wunderground v.1.15,2013-03-25 03:57:00,
2013-03-24 23:02:00,58.4,32.9,30.08,NE,45,7.0,-999.0,38,0.00,,,0.01,Wunderground v.1.15,2013-03-25 04:02:00,
2013-03-24 23:07:00,58.4,32.9,30.08,NE,45,7.0,-999.0,38,0.00,,,0.01,Wunderground v.1.15,2013-03-25 04:07:00,
2013-03-24 23:12:00,58.4,32.9,30.08,NE,45,7.0,-999.0,38,0.00,,,0.01,Wunderground v.1.15,2013-03-25 04:12:00,
2013-03-24 23:17:00,57.6,32.8,30.08,NE,45,8.0,-999.0,39,0.00,,,0.01,Wunderground v.1.15,2013-03-25 04:17:00,
2013-03-24 23:22:00,57.6,32.8,30.08,NE,45,8.0,-999.0,39,0.00,,,0.01,Wunderground v.1.15,2013-03-25 04:22:00,
2013-03-24 23:27:00,57.6,32.8,30.08,NE,45,8.0,-999.0,39,0.00,,,0.01,Wunderground v.1.15,2013-03-25 04:27:00,
2013-03-24 23:32:00,57.6,32.8,30.08,NE,45,8.0,-999.0,39,0.00,,,0.01,Wunderground v.1.15,2013-03-25 04:32:00,
2013-03-24 23:37:00,57.6,32.8,30.08,NE,45,8.0,-999.0,39,0.00,,,0.01,Wunderground v.1.15,2013-03-25 04:37:00,
2013-03-24 23:42:00,57.6,32.8,30.08,NE,45,8.0,-999.0,39,0.00,,,0.01,Wunderground v.1.15,2013-03-25 04:42:00,
2013-03-24 23:47:00,57.1,34.8,30.08,NE,45,8.0,-999.0,43,0.00,,,0.01,Wunderground v.1.15,2013-03-25 04:47:00,
2013-03-24 23:52:00,57.1,34.8,30.08,NE,45,8.0,-999.0,43,0.00,,,0.01,Wunderground v.1.15,2013-03-25 04:52:00,
2013-03-24 23:57:00,57.1,34.8,30.08,NE,45,8.0,-999.0,43,0.00,,,0.01,Wunderground v.1.15,2013-03-25 04:57:00,